Location: Allaines
(49.9632°N, 2.9458°E)
Time: 05:49:38
(UTC+00:00)

Cosmos 1437 - Pass Details

Date: 09 April 2020
Orbit: 373 x 376 km, 81.2° (Epoch: 29 May)

Event Time Altitude Azimuth Distance (km) Brightness Sun altitude
Rises 19:04:27 0° 343° (NNW) 2,261 7.0 -5.6°
Reaches altitude 10° 19:06:29 10° 338° (NNW) 1,402 6.1 -5.9°
Maximum altitude 19:09:26 49° 262° (W) 498 3.6 -6.4°
Drops below altitude 10° 19:12:21 10° 186° (S) 1,384 5.2 -6.8°
Sets 19:14:21 0° 181° (S) 2,228 6.2 -7.1°
